Вернуться в каталог

FENGYUN 1C DEB

АктивенSSO
NORAD 37448·DEBRIS·🇨🇳 China

Запущен May 10, 1999 с Taiyuan Satellite Launch Center

Loading…

Ближайшие Пролёты (ближайшие 24 часа)

TLE

УстаревающийSource: Space-Track

Эпоха: Sep 9, 2026, 10:41 UTC

1 37448U 99025EHS 26252.44527327  .00000975  00000-0  58979-3 0  9994
2 37448  99.3015 321.6463 0302927  51.7924 311.0099 13.88306861661304

Отслеживайте FENGYUN 1C DEB в реальном времени с AllMySat

Download on the App Store